CAPE
185 722 1179 377 306 493 516 949 702 363 965 961 311 874 950 610 959 555 321 1534 694 1230 1254 1415 2089 2735 2111 2634 2228 2312 2073 1723 1849 2101 1982 1674 1437 1694 1980 1730 1819 1677 1560
646 1148 1421 1323 1023 1005 941 1323 945 997 615 622 783 681 389 1260 1737 1498 631 473 609 623 1213 1392 1886 1960 2006 1763 2003 2589 2520 2461 2738 2561 2374 2339 2274 1994 1621 1891 1800 1439 1560
444 1729 2205 822 1176 1667 1265 1172 1403 937 595 442 533 883 618 808 707 319 1017 453 685 124 575 1642 1607 2068 1957 1673 1884 2097 2189 2505 2644 2785 2915 2612 2537 2461 2454 2271 2088 2223 2082
1795 1463 630 2015 1293 2297 1050 1326 763 890 907 854 926 713 1658 1115 549 204 873 889 417 198 610 874 1516 1724 1682 1441 1679 2111 2396 2499 2452 2561 2723 2996 2798 2730 2726 2655 2390 2381 2058
1255 1128 546 1131 2039 1937 2545 1633 2038 1891 2066 1088 851 963 1505 1113 663 243 315 227 371 269 284 884 1033 1278 1473 1189 1406 2331 2563 2598 1873 2473 2682 2739 2926 2811 2840 2883 2680 2590 2412
1546 422 555 2255 1608 2296 1714 1879 1548 2078 1699 2293 1484 1591 1645 1979 892 343 173 25 145 504 329 498 1495 892 1611 1666 1965 2243 2625 2365 2191 2068 2323 2503 2593 2808 2937 2870 2834 2744 2484
1280 1303 1109 1421 1171 1747 1728 2009 1845 1541 1435 959 466 861 781 978 545 717 275 92 802 640 591 419 231 898 1212 1722 1819 2256 2048 2072 1802 1924 2063 2352 2386 2643 2737 2754 2629 2577 2558
1653 1900 1800 1800 2601 1709 1718 1932 2055 2390 1826 2172 815 1018 760 1215 1464 808 721 652 436 502 365 989 583 878 1144 935 797 1618 1762 1869 1861 2247 2077 2097 2336 2539 2625 2620 2500 2386 2432
2011 2195 2298 2068 2041 2851 2513 2517 2301 2024 2103 2202 1510 461 634 584 470 491 727 536 158 868 288 779 619 478 541 1930 443 1009 1117 1342 1908 2038 2187 2067 2245 2258 2645 2649 2494 2336 2405
2255 2452 2094 2341 2433 2719 2887 2517 2516 2498 2173 1705 1427 1106 753 869 535 510 190 357 269 510 788 867 499 98 418 828 1120 719 1358 1277 1717 1982 2216 2474 2258 2448 2694 2739 2527 2389 2335
1841 1402 1662 1889 2146 2558 2572 2428 2374 2137 2337 1793 1939 1652 471 387 764 475 258 306 338 370 956 1300 372 204 690 769 1166 551 984 1080 924 1219 1405 1546 1607 1863 2521 2828 2825 2697 2622
1784 1132 919 1437 1888 2320 2441 2306 2247 2197 2345 1960 1864 1158 735 616 1071 857 621 276 270 177 74 306 234 150 867 660 667 678 892 873 878 1095 1229 1027 829 1173 1771 2192 2763 2874 3001
695 1249 1325 1665 1569 1710 1487 1793 2135 2008 1839 1933 1517 858 1069 1601 1658 1648 794 427 173 451 368 33 78 69 425 626 229 487 697 714 719 697 476 236 397 527 904 1459 1801 1849 2017
1060 1600 1718 1636 2056 1735 1869 1970 2087 2005 1586 1757 1340 1324 1002 1432 1324 1656 1002 522 306 171 149 170 379 285 535 465 697 608 355 422 810 345 176 57 141 270 436 1010 1362 1392 1559
1274 1845 1688 1792 1896 1779 1850 1847 1666 1655 1456 1671 1196 1096 1432 1456 1834 1708 1524 904 795 628 314 194 135 274 509 713 424 335 514 201 124 71 41 80 21 0 118 357 491 548 664
1746 1297 1285 1170 1143 1146 1256 1389 1017 1064 1000 977 955 1247 1022 1167 1240 1538 1193 973 906 744 424 293 336 361 516 620 65 98 369 79 92 70 7 0 0 0 0 0 4 42 194
1480 1403 1291 1231 1263 1293 1014 1028 1143 1212 1173 1200 1033 739 681 433 248 428 371 205 416 199 403 316 189 266 90 127 168 486 426 301 255 109 97 92 85 31 16 0 0 0 0
1321 1170 1141 1083 915 815 1049 1346 991 944 664 651 490 544 194 44 7 0 0 6 12 12 13 173 308 222 202 143 156 230 345 300 183 110 90 90 80 72 25 6 3 0 0
1035 835 883 792 1227 947 1069 557 550 416 435 143 93 17 15 13 10 1 0 0 0 28 21 77 28 13 20 39 26 189 83 153 61 11 2 0 4 5 1 0 3 0 0
839 687 619 421 367 259 178 188 62 11 11 13 12 9 2 0 0 0 8 0 0 0 0 3 30 17 9 9 0 0 4 22 48 35 8 1 5 5 2 0 0 0 0
617 432 206 143 87 9 1 3 4 0 0 0 0 0 0 0 0 0 0 0 0 0 0 0 0 0 4 0 6 10 0 1 1 3 4 5 3 0 0 0 0 0 0
269 145 158 7 1 0 0 0 0 0 0 0 0 0 0 0 0 0 0 0 0 0 0 0 0 0 0 0 0 0 0 0 0 0 0 6 2 0 0 0 0 0 0
7 8 5 1 2 0 0 0 0 0 0 0 0 0 0 1 0 0 0 0 6 10 0 0 2 7 7 13 21 12 21 21 8 0 0 0 0 0 0 0 0 0 0
6 2 0 0 4 0 0 0 0 0 3 2 1 3 2 9 0 0 0 0 0 1 6 5 5 1 6 4 2 3 18 8 6 0 3 0 0 0 0 0 0 0 0
0 0 0 0 1 12 0 0 0 0 18 18 20 4 10 5 0 0 0 0 0 0 1 45 12 0 0 0 0 0 1 2 0 0 8 17 1 1 3 0 0 0 0
0 0 0 2 0 9 0 0 0 0 3 9 20 38 33 2 0 0 0 0 0 1 9 0 0 2 18 17 12 8 14 21 13 4 1 20 18 23 6 0 1 1 4
CIN
-3 -0 -2 -0 -0 -2 -8 -9 -3 -3 -8 -3 -0 -6 -11 -1 -36 -62 -15 -14 -7 -19 -31 -16 -0 -0 -0 -0 -0 -0 -0 -0 -0 -0 -0 -0 -0 -0 -0 -0 -0 -0 -0
-0 -4 -13 -15 -9 -11 -5 -10 -10 -7 -12 -0 -14 -12 -0 -13 -22 -20 -62 -13 -19 -0 -3 -13 -0 -0 -0 -0 -0 -0 -0 -0 -0 -0 -0 -0 -0 -0 -0 -0 -0 -0 -0
-3 -1 -4 -2 -0 -2 -0 -2 -5 -17 -0 -0 -0 -0 -52 -6 -59 -38 -39 -52 -45 -84 -23 -0 -13 -3 -0 -0 -0 -0 -0 -0 -0 -0 -0 -0 -0 -0 -0 -0 -0 -0 -0
-5 -8 -32 -0 -0 -5 -1 -17 -1 -0 -1 -13 -7 -7 -47 -35 -39 -42 -4 -14 -24 -28 -4 -4 -3 -4 -8 -0 -0 -0 -0 -0 -0 -0 -0 -0 -0 -0 -0 -0 -0 -0 -0
-1 -4 -8 -0 -1 -0 -1 -0 -2 -0 -0 -0 -0 -2 -1 -23 -20 -18 -24 -48 -36 -64 -34 -3 -0 -3 -6 -15 -2 -0 -0 -0 -8 -0 -0 -0 -0 -0 -0 -0 -0 -0 -0
-43 -100 -47 -0 -0 -0 -0 -0 -0 -2 -0 -0 -0 -0 -7 -0 -5 -33 -32 -75 -22 -22 -38 -10 -8 -12 -3 -12 -0 -0 -0 -0 -0 -8 -2 -0 -0 -0 -0 -0 -0 -0 -0
-95 -48 -17 -1 -7 -0 -0 -0 -0 -0 -0 -20 -11 -11 -32 -19 -36 -3 -11 -50 -1 -2 -10 -43 -2 -3 -21 -42 -14 -1 -1 -9 -10 -6 -10 -1 -1 -0 -0 -0 -0 -0 -0
-21 -5 -3 -7 -0 -0 -0 -0 -0 -0 -0 -0 -0 -0 -1 -7 -7 -18 -1 -9 -5 -16 -0 -12 -25 -23 -24 -10 -25 -11 -14 -8 -7 -6 -6 -5 -3 -1 -0 -1 -1 -2 -0
-0 -0 -0 -0 -0 -0 -0 -0 -0 -0 -0 -0 -0 -0 -0 -0 -8 -4 -21 -8 -22 -5 -29 -10 -12 -48 -66 -0 -27 -0 -16 -26 -8 -3 -1 -3 -5 -4 -1 -0 -1 -3 -1
-0 -0 -0 -0 -0 -0 -0 -1 -1 -0 -0 -0 -0 -0 -3 -0 -0 -0 -29 -9 -22 -10 -9 -15 -1 -75 -4 -0 -10 -13 -27 -28 -7 -2 -0 -0 -4 -4 -3 -1 -2 -5 -4
-2 -3 -0 -0 -0 -0 -0 -0 -0 -0 -0 -0 -0 -0 -0 -4 -0 -0 -0 -20 -14 -22 -5 -2 -27 -35 -2 -19 -13 -30 -35 -43 -29 -16 -11 -16 -26 -18 -5 -0 -1 -1 -1
-0 -0 -8 -2 -0 -0 -0 -0 -0 -0 -0 -0 -0 -0 -0 -0 -0 -0 -0 -0 -1 -22 -56 -44 -22 -1 -4 -11 -2 -37 -32 -59 -43 -30 -27 -44 -78 -53 -14 -1 -0 -0 -0
-0 -2 -0 -0 -0 -0 -5 -2 -0 -0 -0 -0 -0 -0 -0 -0 -0 -0 -0 -0 -0 -1 -12 -54 -97 -57 -7 -2 -28 -27 -32 -38 -40 -51 -87 -133 -116 -108 -75 -22 -1 -5 -4
-0 -0 -0 -0 -0 -0 -0 -0 -0 -0 -0 -0 -0 -0 -0 -2 -2 -0 -0 -0 -0 -2 -13 -5 -26 -42 -66 -31 -19 -28 -50 -57 -29 -98 -152 -69 -159 -129 -111 -49 -10 -4 -7
-0 -0 -0 -0 -0 -0 -0 -0 -0 -0 -0 -0 -0 -0 -0 -0 -0 -0 -0 -0 -0 -0 -0 -3 -14 -25 -34 -22 -20 -20 -32 -77 -116 -195 -231 -189 -40 -3 -161 -104 -84 -84 -67
-0 -3 -1 -1 -3 -4 -4 -0 -0 -0 -4 -0 -4 -0 -0 -0 -0 -0 -0 -0 -0 -0 -1 -4 -8 -20 -16 -4 -58 -23 -4 -36 -169 -93 -130 -0 -0 -0 -0 -0 -154 -217 -160
-14 -10 -4 -4 -2 -2 -6 -2 -0 -0 -0 -0 -0 -0 -0 -2 -8 -9 -2 -13 -0 -3 -1 -5 -36 -30 -125 -60 -16 -2 -14 -2 -12 -11 -28 -47 -79 -106 -175 -0 -0 -0 -0
-19 -19 -7 -0 -3 -4 -0 -0 -0 -2 -0 -0 -0 -0 -13 -125 -11 -2 -0 -2 -0 -0 -5 -14 -5 -14 -25 -65 -74 -52 -22 -47 -50 -24 -98 -162 -58 -71 -136 -169 -40 -0 -0
-25 -20 -14 -11 -0 -0 -0 -17 -15 -34 -20 -95 -68 -0 -0 -0 -0 -0 -0 -0 -0 -0 -0 -0 -0 -1 -1 -3 -20 -51 -76 -27 -58 -133 -243 -0 -111 -28 -33 -0 -48 -5 -0
-10 -8 -9 -27 -37 -76 -129 -129 -75 -0 -0 -0 -0 -0 -0 -0 -0 -0 -0 -0 -0 -0 -0 -0 -0 -0 -3 -0 -0 -0 -21 -16 -23 -21 -78 -29 -35 -21 -15 -0 -0 -0 -0
-20 -24 -45 -62 -100 -48 -0 -0 -0 -0 -0 -0 -0 -0 -0 -0 -0 -0 -0 -0 -0 -0 -0 -0 -0 -0 -0 -0 -12 -0 -0 -0 -0 -0 -15 -18 -8 -14 -0 -0 -0 -0 -0
-50 -53 -49 -0 -0 -0 -0 -0 -0 -0 -0 -0 -0 -0 -0 -0 -0 -0 -0 -0 -0 -0 -0 -0 -0 -0 -0 -0 -0 -0 -0 -0 -0 -0 -0 -79 -15 -0 -0 -0 -0 -0 -0
-29 -0 -0 -0 -0 -0 -0 -0 -0 -0 -0 -0 -0 -0 -0 -0 -0 -0 -0 -0 -2 -12 -2 -0 -0 -0 -0 -0 -0 -0 -0 -0 -0 -0 -0 -0 -0 -0 -0 -0 -0 -0 -0
-0 -0 -0 -0 -0 -0 -0 -0 -0 -0 -0 -0 -0 -0 -0 -0 -8 -0 -0 -0 -0 -0 -0 -0 -0 -0 -0 -0 -0 -0 -0 -0 -0 -0 -0 -0 -0 -0 -0 -0 -0 -0 -0
-0 -0 -0 -0 -0 -0 -0 -0 -0 -0 -0 -0 -0 -0 -0 -1 -0 -0 -0 -0 -0 -0 -1 -26 -23 -0 -0 -0 -0 -0 -0 -0 -0 -0 -0 -0 -0 -0 -0 -0 -0 -0 -0
-0 -0 -0 -0 -0 -0 -0 -0 -0 -0 -0 -0 -0 -0 -81 -32 -0 -0 -0 -0 -0 -0 -0 -0 -0 -0 -26 -22 -66 -33 -1 -0 -0 -0 -0 -0 -0 -0 -0 -0 -0 -0 -4
Wind_Speed
3 4 5 3 5 7 8 5 5 2 4 4 7 13 17 14 13 8 8 22 25 7 14 16 14 12 10 10 5 7 3 2 1 1 0 4 3 6 7 9 12 16 15
7 5 8 8 6 6 7 9 8 6 8 8 9 10 15 20 22 14 14 15 23 3 12 20 19 17 15 14 9 5 5 5 3 4 3 3 3 4 7 8 11 15 15
1 8 7 5 5 8 6 9 10 9 6 10 9 11 20 15 22 15 12 13 17 14 11 11 19 20 19 20 15 7 5 3 5 6 5 5 4 4 6 5 7 10 13
9 11 9 6 3 4 3 12 7 8 10 10 11 14 19 21 20 13 9 8 9 10 16 10 11 21 21 18 13 11 8 5 5 5 5 5 5 5 5 7 8 10 12
19 22 14 9 8 5 5 9 10 8 10 7 7 9 10 20 22 12 11 8 9 7 8 13 10 25 23 20 16 13 15 4 4 4 1 4 5 6 6 7 8 10 12
13 9 6 11 11 9 10 13 14 13 13 13 7 9 11 16 18 16 10 nan 11 9 9 6 6 10 28 28 20 14 17 7 9 5 6 2 4 6 8 9 10 12 16
27 22 14 12 14 12 13 13 16 16 18 22 17 12 15 13 17 21 18 nan 13 10 9 17 21 8 24 32 21 14 16 18 8 2 2 1 3 6 7 9 11 12 19
23 19 17 15 15 12 12 12 16 18 23 20 21 20 21 22 23 18 17 19 9 10 9 6 14 15 15 18 24 11 19 18 11 5 3 2 3 5 6 7 7 11 16
23 25 15 13 10 13 12 13 17 13 6 10 18 14 15 17 22 23 18 15 6 8 10 9 7 12 21 22 33 6 16 13 12 7 7 5 3 3 4 4 7 10 11
25 27 22 13 10 12 8 12 11 8 12 15 16 15 15 18 13 21 25 19 17 13 10 10 5 nan 3 15 14 13 23 10 8 6 5 5 3 1 4 6 8 11 10
24 15 15 8 15 19 16 8 13 14 16 15 16 16 19 26 19 16 15 20 18 20 15 10 11 9 12 18 10 16 21 26 12 8 5 8 10 13 5 7 9 11 11
28 10 11 13 10 8 3 4 11 13 14 13 16 17 15 18 20 24 16 13 15 15 nan 15 20 15 4 16 14 20 26 24 16 11 10 10 13 13 12 12 11 13 16
20 11 11 7 3 2 6 14 10 13 12 13 14 15 15 15 18 21 20 19 21 17 13 nan nan nan 7 15 20 23 23 16 18 20 19 16 15 16 13 12 13 16 20
13 6 5 5 5 6 7 11 14 16 15 18 19 19 18 21 19 15 17 23 22 19 17 21 23 21 26 21 29 26 23 18 21 20 21 nan 19 18 17 16 16 18 20
13 12 10 11 15 15 16 17 18 18 19 18 18 22 20 20 20 22 21 22 21 20 24 24 22 20 28 30 31 24 22 22 21 nan nan nan nan nan 20 18 18 18 18
17 15 15 17 17 18 17 15 19 22 21 22 24 28 26 27 27 25 25 27 25 23 24 27 28 28 29 22 nan nan 18 nan nan nan nan nan nan nan nan nan nan nan 21
20 18 17 18 19 21 22 24 26 29 26 29 29 31 33 34 32 32 32 31 34 33 31 32 32 30 nan 25 24 24 31 26 28 22 nan nan nan nan nan nan nan nan nan
25 24 24 26 30 28 27 29 31 30 31 31 33 32 34 nan nan nan nan nan nan nan nan 32 29 30 28 31 27 24 25 25 38 30 nan nan nan nan nan nan nan nan nan
25 28 27 27 26 30 31 32 31 31 31 33 nan nan nan nan nan nan nan nan nan nan nan nan nan nan nan nan nan 28 nan 32 nan nan nan nan nan nan nan nan nan nan nan
27 28 28 28 32 32 32 30 nan nan nan nan nan nan nan nan nan nan nan nan nan nan nan nan nan nan nan nan nan nan nan nan nan nan nan nan nan nan nan nan nan nan nan
28 29 32 31 nan nan nan nan nan nan nan nan nan nan nan nan nan nan nan nan nan nan nan nan nan nan nan nan nan nan nan nan nan nan nan nan nan nan nan nan nan nan nan
31 33 34 nan nan nan nan nan nan nan nan nan nan nan nan nan nan nan nan nan nan nan nan nan nan nan nan nan nan nan nan nan nan nan nan nan nan nan nan nan nan nan nan
nan nan nan nan nan nan nan nan nan nan nan nan nan nan nan nan nan nan nan nan nan nan nan nan nan nan nan nan nan nan nan nan nan nan nan nan nan nan nan nan nan nan nan
nan nan nan nan nan nan nan nan nan nan nan nan nan nan nan nan nan nan nan nan nan nan nan nan nan nan nan nan nan nan nan nan nan nan nan nan nan nan nan nan nan nan nan
nan nan nan nan nan nan nan nan nan nan nan nan nan nan nan nan nan nan nan nan nan nan nan nan nan nan nan nan nan nan nan nan nan nan nan nan nan nan nan nan nan nan nan
nan nan nan nan nan nan nan nan nan nan nan nan nan nan nan nan nan nan nan nan nan nan nan nan nan nan nan nan nan nan nan nan nan nan nan nan nan nan nan nan nan nan nan
Wind_Direction
242 220 264 225 215 221 232 238 301 319 312 41 14 326 338 326 294 277 267 304 251 49 353 0 352 349 355 351 339 332 342 313 230 217 300 108 119 132 139 143 155 173 163
241 247 234 219 227 254 256 236 251 260 317 338 321 318 336 309 307 304 279 273 322 120 35 356 352 351 5 359 345 353 360 19 174 193 208 169 158 151 145 151 155 163 173
277 232 234 196 203 252 269 241 253 262 295 328 342 332 312 314 322 319 299 282 324 346 26 356 15 360 349 8 8 8 54 56 175 188 207 227 185 160 152 168 160 156 187
331 298 291 267 265 264 293 284 269 284 299 292 302 322 302 306 313 309 323 307 324 301 327 328 346 31 354 4 33 25 26 97 128 178 210 209 189 173 170 167 165 161 155
317 301 283 291 264 267 284 295 273 287 281 274 293 297 308 314 326 314 312 281 334 320 289 344 335 24 352 344 1 24 23 34 107 120 122 218 195 179 167 177 164 153 151
338 358 345 257 278 314 325 312 307 287 282 275 280 306 318 325 331 333 299 nan 349 312 287 358 14 327 2 335 355 26 23 21 53 99 346 289 193 177 168 170 173 160 153
343 0 353 352 350 354 340 318 306 310 305 304 280 276 275 314 311 314 325 nan 313 340 311 289 231 55 348 341 342 21 36 33 37 165 341 262 168 176 170 175 181 168 160
340 346 337 338 334 328 332 315 311 310 305 300 297 289 283 285 286 293 318 314 284 263 305 308 335 24 259 345 293 28 22 23 54 101 106 101 174 151 156 173 189 182 178
325 309 303 307 322 319 307 306 305 296 315 307 316 304 295 304 271 278 280 294 294 233 247 298 324 269 293 302 308 312 29 30 26 82 78 84 65 172 152 170 198 194 187
338 287 280 277 279 290 293 309 292 326 322 333 316 321 303 305 296 264 271 279 258 240 253 243 275 nan 315 285 299 296 341 341 349 66 100 99 93 267 191 188 198 199 189
353 301 250 261 293 284 291 337 322 317 316 319 308 322 333 333 341 360 268 281 249 246 240 255 269 246 262 277 277 263 281 281 279 274 230 219 221 208 210 206 202 200 192
10 38 87 98 86 88 71 319 305 311 311 322 323 331 337 331 333 346 338 302 263 258 nan 241 276 253 200 286 281 265 261 277 266 252 244 225 209 210 213 211 207 201 190
19 18 71 64 80 355 293 322 293 300 301 313 312 323 319 323 333 331 338 325 307 266 276 nan nan nan 193 309 280 271 255 262 265 252 256 224 212 206 206 206 206 206 199
354 338 329 319 271 288 287 282 287 287 294 301 308 316 314 314 311 308 318 318 317 318 277 280 270 256 267 271 265 262 246 253 268 266 240 nan 228 218 213 218 219 214 209
321 301 279 267 272 273 271 275 275 273 276 284 300 295 298 296 296 298 297 301 305 298 298 298 290 266 268 270 283 247 256 260 262 nan nan nan nan nan 230 219 217 219 216
309 304 292 290 287 282 279 279 284 283 279 285 282 278 280 284 281 279 281 283 285 284 285 285 281 273 285 283 nan nan 255 nan nan nan nan nan nan nan nan nan nan nan 222
300 299 295 287 279 278 286 290 292 288 288 285 282 280 281 274 278 275 273 268 273 273 282 278 273 275 nan 286 283 274 282 271 257 279 nan nan nan nan nan nan nan nan nan
296 297 293 291 290 291 290 289 290 287 285 284 281 282 278 nan nan nan nan nan nan nan nan 273 272 269 271 271 262 252 266 268 242 240 nan nan nan nan nan nan nan nan nan
297 305 305 303 299 303 301 299 294 291 288 285 nan nan nan nan nan nan nan nan nan nan nan nan nan nan nan nan nan 258 nan 266 nan nan nan nan nan nan nan nan nan nan nan
314 308 304 308 311 312 311 306 nan nan nan nan nan nan nan nan nan nan nan nan nan nan nan nan nan nan nan nan nan nan nan nan nan nan nan nan nan nan nan nan nan nan nan
311 310 311 308 nan nan nan nan nan nan nan nan nan nan nan nan nan nan nan nan nan nan nan nan nan nan nan nan nan nan nan nan nan nan nan nan nan nan nan nan nan nan nan
313 318 317 nan nan nan nan nan nan nan nan nan nan nan nan nan nan nan nan nan nan nan nan nan nan nan nan nan nan nan nan nan nan nan nan nan nan nan nan nan nan nan nan
nan nan nan nan nan nan nan nan nan nan nan nan nan nan nan nan nan nan nan nan nan nan nan nan nan nan nan nan nan nan nan nan nan nan nan nan nan nan nan nan nan nan nan
nan nan nan nan nan nan nan nan nan nan nan nan nan nan nan nan nan nan nan nan nan nan nan nan nan nan nan nan nan nan nan nan nan nan nan nan nan nan nan nan nan nan nan
nan nan nan nan nan nan nan nan nan nan nan nan nan nan nan nan nan nan nan nan nan nan nan nan nan nan nan nan nan nan nan nan nan nan nan nan nan nan nan nan nan nan nan
nan nan nan nan nan nan nan nan nan nan nan nan nan nan nan nan nan nan nan nan nan nan nan nan nan nan nan nan nan nan nan nan nan nan nan nan nan nan nan nan nan nan nan